Location: Newark
(34.1333°N, 7.9667°W)
Time: 08:08:49
(UTC+00:00)

S-56A Canister/Altair - Pass Details

Date: 12 December 2021
Orbit: 634 x 2499 km, 38.9° (Epoch: 25 January)

Event Time Altitude Azimuth Distance (km) Brightness Sun altitude
Rises 18:00:23 0° 192° (SSW) 6,066 12.6 -7.8°
Reaches altitude 10° 18:05:37 10° 179° (S) 5,141 12.0 -8.8°
Maximum altitude 18:16:03 23° 135° (SE) 4,076 11.0 -10.8°
Enters shadow 18:25:10 11° 92° (E) 4,654 10.9 -12.6°
